Location: Aulus
(42.7909°N, 1.3399°E)
Time: 20:43:41
(UTC+00:00)

Cosmos 1743 Rocket - Pass Details

Date: 19 May 2025
Orbit: 599 x 626 km, 82.6° (Epoch: 18 June)

Event Time Altitude Azimuth Distance (km) Brightness Sun altitude
Rises 23:21:53 0° 355° (N) 2,918 8.3 -26.9°
Reaches altitude 10° 23:24:09 10° 358° (N) 2,005 7.2 -26.9°
Enters shadow 23:27:49 53° 33° (NNE) 764 4.1 -27.0°
